Regional Weather Roundup
Issued by NWS Goodland, KS

Home | Current Version | Previous Version | Graphics & Text | Print | Product List | Glossary On
Versions: 1 2 3 4 5 6 7 8 9 10 11 12 13 14 15 16 17 18 19 20 21 22 23 24 25 26 27 28 29 30 31 32 33 34 35 36 37 38 39 40 41 42 43 44 45 46 47 48 49 50
000
ASUS43 KGLD 262308
RWRGLD

GOODLAND FORECAST AREA HOURLY WEATHER ROUNDUP
NATIONAL WEATHER SERVICE GOODLAND KS
400 PM MST MON JAN 26 2015

...OFFICIAL OBSERVATIONS...

CITY           SKY/WX    TMP DP  RH WIND       PRES   REMARKS
GOODLAND KS    CLEAR     65  31  28 N9        30.13F
HILL CITY KS   CLEAR     71  28  20 NW17G26   30.05R
IMPERIAL NEB   CLEAR     65  30  27 NW8       30.10S
MCCOOK NEB     CLEAR     68  30  24 NW12      30.06S
AKRON CO       CLEAR     62  31  31 W3        30.17S
BURLINGTON CO  CLEAR     65  33  30 N7        30.16S
LIMON CO       SUNNY     65  24  21 N5        30.22R
$$

...UNOFFICIAL OBSERVATIONS...

CITY           SKY/WX    TMP DP  RH WIND       PRES   REMARKS
COLBY KS       CLEAR     66  37  34 NW9       30.12S
GOVE KS          N/A     70  32  24 MISG        N/A
NORTON KS      CLEAR     68  25  19 NW10      30.04R
SHARON SPRINGS   N/A     67  31  26 N8G16       N/A
KIT CARSON CO    N/A     68  31  25 MISG        N/A
YUMA CO          N/A     65  30  27 NW6         N/A
$$


USA.gov is the U.S. government's official web portal to all federal, state and local government web resources and services.